Starlink 5444

operational
NORAD ID: 54768 Int'l Des: 2022-175 Owner: SPXS Country: US Constellation: starlink
LEOCIRCULAR

Starlink 5444について

説明を読み込み中...

リアルタイム位置

3D地球を読み込み中...

次回通過

高度履歴

Altitude vs Time

uPlot chart will show altitude changes over time

軌道要素

1 54768U 22175L 25350.42340542 -.00000459 00000-0 -10734-4 0 9995
2 54768 53.2192 43.3029 0001390 89.6985 270.4166 15.08829587167556
Epoch: Dec 16, 2025 • Age: 23 hours

現在のステータス

高度 541.4 km
速度 7.60 km/s
衛星直下点 33.29°N, 31.78°W
打ち上げ日 Dec 17, 2022
運用期間 2.9 years
タイプ internet

技術仕様

分類 Payload
質量 305.00 kg
乾燥質量 290.00 kg
総質量 305.00 kg
長さ 0.20 m
直径 2.80 m
スパン 9.00 m
形状 Box + pan
製造者 SPXS
バスタイプ Starlink
フェーズステータス In Orbit
所有者/国 SPXS/US

大規模コンステレーション

Loading constellations...